sat.trackr.live / text

‹ back to catalog

MONITOR-4 (RS57S)

NORAD 57182 · 2023-091S

PAYLOAD ACTIVE UNKNOWN

§ Identity

Operator
Country
CIS
Launch date
2023-06-27
Launch site
VOSTO
Launch vehicle
Mass (kg)
RCS (m²)

Purposes: comms

External: N2YO · Heavens-Above · Gunter

§ Orbital elements

Epoch: 2026-09-19T21:20:30.803424Z

Period
94.14 min
Inclination
97.4980°
Eccentricity
0.0012452
Mean motion
15.29560857 rev/d
Perigee alt
468.6 km
Apogee alt
485.7 km
Semi-major
6,855.3 km
B*
2.4568e-4
RAAN
327.0687°
Arg perigee
122.4028°
Mean anomaly
237.8419°
Rev number
17,876

§ Raw data

MONITOR-4 (RS57S)1 57182U 23091S   26262.88924541  .00006977  00000+0  24568-3 0  99932 57182  97.4980 327.0687 0012452 122.4028 237.8419 15.29560857178769

JSON: /api/v1/satellites/57182 · /tle

For live sub-satellite position, see the globe view (requires WebGL).

§ Visibility from observer

Set your observer location to see the next 7 days of passes ≥ 10°. The values pass through the URL so the page stays shareable.

No JS? Fill the form by hand. The geolocation button needs JavaScript.

§ Radio — SatNOGS DB

ModeDescriptionDownlinkUplink
GMSK USP Mode U - GMSK 2k4 (USP FEC) TLM 436.080 MHz
GMSK USP Mode U - GMSK 4k8 (USP FEC) TLM 436.080 MHz
GMSK USP Mode U - GMSK 9k6 (USP FEC) 436.080 MHz

3 transmitters · refreshed weekly from db.satnogs.org